Litchfield, MN

9:28 PM CDT on August 19, 2017 (GMT -0500)
Litchfield Municipal

Weather History for KLJF - June, 2011

Change the Weather History Date:

Wednesday, June 29, 2011

  Actual Average Record
Temperature  
Mean Temperature 73 °F -  
Max Temperature 84 °F 82 °F 114 °F (1997)
Min Temperature 62 °F 59 °F 46 °F (1959)
Cooling Degree Days 8    
Growing Degree Days 23 (Base 50)    
Moisture  
Dew Point 60 °F    
Average Humidity 63    
Maximum Humidity 88    
Minimum Humidity 40    
Precipitation  
Precipitation 0.00 in - - ()
Sea Level Pressure  
Sea Level Pressure 29.94 in    
Wind  
Wind Speed 6 mph (SSE)    
Max Wind Speed 20 mph    
Max Gust Speed 25 mph    
Visibility 10 miles    
Events      
Averages and records for this station are not official NWS values.
T = Trace of Precipitation, MM = Missing Value Source: NWS Daily Summary

Daily Weather History Graph

Daily Weather History Graph

Search for Another Location

Airport or City:

Trip Planner

Search our weather history database for the weather conditions in past years. The results will help you decide how hot, cold, wet, or windy it might be!

Date:

Astronomy

Jun. 29, 2011 Rise Set
Actual Time 5:33 AM CDT 9:09 PM CDT
Civil Twilight 4:56 AM CDT 9:46 PM CDT
Nautical Twilight 4:06 AM CDT 10:36 PM CDT
Astronomical Twilight 3:00 AM CDT 11:41 PM CDT
Moon 3:53 AM CDT (6/29) 7:52 PM CDT (6/29)
Length of Visible Light 16h 50m
Length of Day
15h 35m
Waning Crescent, 3% of the Moon is Illuminated
Jun 29
Waning Crescent
Jul 1
New
Jul 8
First Quarter
Jul 15
Full
Jul 23
Last Quarter

Hourly Weather History & Observations

Time (CDT) Temp. Heat Index Dew Point Humidity Pressure Visibility Wind Dir Wind Speed Gust Speed Precip Events Conditions
12:12 AM 64.4 °F - 55.4 °F 73% 30.02 in 10.0 mi Calm Calm - N/A   Clear
12:33 AM 62.6 °F - 57.2 °F 82% 30.02 in 10.0 mi SE 3.5 mph - N/A   Clear
12:53 AM 64.4 °F - 57.2 °F 77% 30.02 in 10.0 mi Calm Calm - N/A   Clear
1:13 AM 62.6 °F - 57.2 °F 82% 30.01 in 10.0 mi SE 3.5 mph - N/A   Mostly Cloudy
1:33 AM 62.6 °F - 57.2 °F 82% 30.01 in 10.0 mi SE 4.6 mph - N/A   Overcast
1:53 AM 64.4 °F - 57.2 °F 77% 30.01 in 10.0 mi SE 4.6 mph - N/A   Overcast
2:13 AM 62.6 °F - 57.2 °F 82% 30.01 in 10.0 mi SE 3.5 mph - N/A   Overcast
2:33 AM 64.4 °F - 57.2 °F 77% 30.01 in 10.0 mi SE 4.6 mph - N/A   Overcast
2:53 AM 64.4 °F - 57.2 °F 77% 30.00 in 10.0 mi SE 5.8 mph - N/A   Overcast
3:12 AM 64.4 °F - 57.2 °F 77% 30.00 in 10.0 mi SE 4.6 mph - N/A   Scattered Clouds
3:33 AM 62.6 °F - 57.2 °F 82% 30.00 in 10.0 mi SE 5.8 mph - N/A   Mostly Cloudy
4:12 AM 62.6 °F - 57.2 °F 82% 30.00 in 10.0 mi SE 3.5 mph - N/A   Mostly Cloudy
4:33 AM 62.6 °F - 57.2 °F 82% 29.99 in 10.0 mi SE 4.6 mph - N/A   Mostly Cloudy
4:53 AM 62.6 °F - 57.2 °F 82% 30.00 in 10.0 mi SE 4.6 mph - N/A   Mostly Cloudy
5:13 AM 62.6 °F - 57.2 °F 82% 30.00 in 10.0 mi SE 4.6 mph - N/A   Mostly Cloudy
5:33 AM 62.6 °F - 59.0 °F 88% 30.00 in 10.0 mi SE 3.5 mph - N/A   Mostly Cloudy
5:53 AM 62.6 °F - 59.0 °F 88% 30.01 in 10.0 mi SSE 4.6 mph - N/A   Mostly Cloudy
6:13 AM 64.4 °F - 59.0 °F 83% 30.00 in 10.0 mi SSE 5.8 mph - N/A   Scattered Clouds
6:33 AM 64.4 °F - 60.8 °F 88% 30.01 in 10.0 mi SSE 3.5 mph - N/A   Clear
6:53 AM 66.2 °F - 60.8 °F 83% 30.01 in 10.0 mi SE 4.6 mph - N/A   Clear
7:13 AM 66.2 °F - 60.8 °F 83% 30.01 in 10.0 mi SE 4.6 mph - N/A   Clear
7:33 AM 66.2 °F - 60.8 °F 83% 30.00 in 10.0 mi SSE 5.8 mph - N/A   Clear
7:53 AM 68.0 °F - 60.8 °F 78% 30.00 in 10.0 mi SE 5.8 mph - N/A   Clear
8:13 AM 69.8 °F - 60.8 °F 73% 29.99 in 10.0 mi SE 5.8 mph - N/A   Clear
8:33 AM 71.6 °F - 62.6 °F 73% 30.00 in 10.0 mi SSE 4.6 mph - N/A   Clear
8:53 AM 71.6 °F - 60.8 °F 69% 30.00 in 10.0 mi SSE 8.1 mph - N/A   Clear
9:33 AM 73.4 °F - 62.6 °F 69% 30.01 in 10.0 mi SSE 8.1 mph - N/A   Clear
9:53 AM 73.4 °F - 62.6 °F 69% 30.00 in 10.0 mi SSE 8.1 mph - N/A   Clear
10:13 AM 75.2 °F - 60.8 °F 61% 30.00 in 10.0 mi SSE 11.5 mph 18.4 mph N/A   Clear
10:33 AM 75.2 °F - 60.8 °F 61% 29.99 in 10.0 mi SSE 6.9 mph 19.6 mph N/A   Clear
10:52 AM 77.0 °F - 60.8 °F 57% 29.98 in 10.0 mi SSE 6.9 mph 16.1 mph N/A   Clear
11:13 AM 77.0 °F - 60.8 °F 57% 29.98 in 10.0 mi SSE 10.4 mph 17.3 mph N/A   Clear
11:33 AM 77.0 °F - 59.0 °F 54% 29.97 in 10.0 mi SSE 12.7 mph 18.4 mph N/A   Clear
11:52 AM 78.8 °F - 59.0 °F 51% 29.97 in 10.0 mi SSE 13.8 mph - N/A   Clear
12:13 PM 78.8 °F - 60.8 °F 54% 29.96 in 10.0 mi SSE 9.2 mph 16.1 mph N/A   Clear
12:33 PM 80.6 °F 81.1 °F 59.0 °F 48% 29.95 in 10.0 mi SSE 10.4 mph 19.6 mph N/A   Clear
12:53 PM 80.6 °F 81.1 °F 59.0 °F 48% 29.94 in 10.0 mi SSE 15.0 mph 23.0 mph N/A   Clear
1:13 PM 80.6 °F 81.5 °F 60.8 °F 51% 29.94 in 10.0 mi SSE 12.7 mph 19.6 mph N/A   Clear
1:32 PM 80.6 °F 81.1 °F 59.0 °F 48% 29.93 in 10.0 mi SSE 9.2 mph 18.4 mph N/A   Clear
1:53 PM 82.4 °F 82.5 °F 59.0 °F 45% 29.93 in 10.0 mi SSE 11.5 mph 16.1 mph N/A   Clear
2:13 PM 82.4 °F 82.9 °F 60.8 °F 48% 29.91 in 10.0 mi SSE 9.2 mph 21.9 mph N/A   Clear
2:33 PM 82.4 °F 82.5 °F 59.0 °F 45% 29.90 in 10.0 mi SSE 12.7 mph 20.7 mph N/A   Clear
2:53 PM 82.4 °F 82.5 °F 59.0 °F 45% 29.89 in 10.0 mi SSE 15.0 mph 24.2 mph N/A   Clear
3:13 PM 84.2 °F 83.5 °F 57.2 °F 40% 29.88 in 10.0 mi SSE 11.5 mph 23.0 mph N/A   Clear
3:33 PM 84.2 °F 83.5 °F 57.2 °F 40% 29.87 in 10.0 mi SSE 13.8 mph 21.9 mph N/A   Clear
3:53 PM 84.2 °F 83.5 °F 57.2 °F 40% 29.86 in 10.0 mi SE 19.6 mph 24.2 mph N/A   Clear
4:13 PM 84.2 °F 83.5 °F 57.2 °F 40% 29.85 in 10.0 mi SE 17.3 mph 24.2 mph N/A   Clear
4:33 PM 84.2 °F 83.5 °F 57.2 °F 40% 29.85 in 10.0 mi SSE 13.8 mph 24.2 mph N/A   Clear
4:53 PM 84.2 °F 83.5 °F 57.2 °F 40% 29.85 in 10.0 mi SE 18.4 mph 25.3 mph N/A   Clear
5:13 PM 84.2 °F 83.5 °F 57.2 °F 40% 29.85 in 10.0 mi SSE 15.0 mph 24.2 mph N/A   Clear
5:33 PM 84.2 °F 83.8 °F 59.0 °F 42% 29.84 in 10.0 mi SE 13.8 mph 23.0 mph N/A   Clear
5:53 PM 84.2 °F 84.4 °F 60.8 °F 45% 29.84 in 10.0 mi SSE 10.4 mph 16.1 mph N/A   Clear
6:13 PM 84.2 °F 84.4 °F 60.8 °F 45% 29.84 in 10.0 mi SSE 9.2 mph 19.6 mph N/A   Clear
6:53 PM 82.4 °F 83.4 °F 62.6 °F 51% 29.83 in 10.0 mi SSE 12.7 mph 21.9 mph N/A   Clear
7:12 PM 82.4 °F 83.4 °F 62.6 °F 51% 29.83 in 10.0 mi SSE 8.1 mph 18.4 mph N/A   Clear
7:33 PM 82.4 °F 83.9 °F 64.4 °F 54% 29.83 in 10.0 mi SSE 10.4 mph 17.3 mph N/A   Clear
7:53 PM 82.4 °F 83.9 °F 64.4 °F 54% 29.83 in 10.0 mi SSE 10.4 mph 17.3 mph N/A   Clear
8:13 PM 80.6 °F 82.3 °F 64.4 °F 58% 29.83 in 10.0 mi SSE 10.4 mph 16.1 mph N/A   Clear
8:33 PM 80.6 °F 82.3 °F 64.4 °F 58% 29.83 in 10.0 mi SSE 9.2 mph - N/A   Clear
8:53 PM 80.6 °F 82.3 °F 64.4 °F 58% 29.83 in 10.0 mi SSE 6.9 mph - N/A   Clear
9:13 PM 78.8 °F - 64.4 °F 61% 29.83 in 10.0 mi SE 8.1 mph - N/A   Scattered Clouds
9:33 PM 78.8 °F - 64.4 °F 61% 29.83 in 10.0 mi SSE 9.2 mph - N/A   Overcast
9:53 PM 78.8 °F - 64.4 °F 61% 29.84 in 10.0 mi SE 10.4 mph - N/A   Mostly Cloudy
10:12 PM 78.8 °F - 64.4 °F 61% 29.84 in 10.0 mi SE 9.2 mph - N/A   Mostly Cloudy
10:33 PM 78.8 °F - 66.2 °F 65% 29.84 in 10.0 mi SE 10.4 mph - N/A   Mostly Cloudy
10:53 PM 78.8 °F - 66.2 °F 65% 29.83 in 10.0 mi SSE 12.7 mph 17.3 mph N/A   Overcast
11:13 PM 78.8 °F - 66.2 °F 65% 29.83 in 10.0 mi SE 9.2 mph 16.1 mph N/A   Overcast
11:33 PM 77.0 °F - 66.2 °F 69% 29.83 in 10.0 mi SSE 6.9 mph - N/A   Mostly Cloudy
11:53 PM 77.0 °F - 66.2 °F 69% 29.83 in 10.0 mi SSE 8.1 mph 19.6 mph N/A   Overcast